When you browse on this site, cookies collect data to enhance your experience and personalize the content and advertising you see.
Visit our Privacy Policy to learn more. By continuing to use the site, you agree to this use of cookies and data.
  • In Hungary
  • List of Countries
  • For 7 days
  • Water Temperature
  • Weather Map
  • News
  • Weather Widgets
  • user-avatar
    Login

    Hourly Weather Ryazanovschina

    Today, 24 January, Friday

    Time Temperature Precipitation Wind Pressure Humidity
    00:00 -5°C° 0.1 mm 4 mps 734 mmHg 83%
    01:00 -4°C° 0.1 mm 4 mps 733 mmHg 87%
    02:00 -4°C° 0.1 mm 4 mps 732 mmHg 91%
    03:00 -4°C° 0.1 mm 4 mps 731 mmHg 91%
    04:00 -4°C° 0.1 mm 4 mps 730 mmHg 91%
    05:00 -5°C° 0.1 mm 5 mps 729 mmHg 91%
    06:00 -3°C° 0.6 mm 4 mps 729 mmHg 93%
    07:00 -3°C° 0.6 mm 4 mps 728 mmHg 95%
    08:00 -2°C° 0.6 mm 4 mps 728 mmHg 97%
    09:00 -2°C° 0.1 mm 4 mps 727 mmHg 95%
    10:00 -1°C° 0.1 mm 5 mps 727 mmHg 93%
    11:00 0°C° 0.1 mm 5 mps 726 mmHg 91%
    12:00 0°C° 0.1 mm 5 mps 726 mmHg 91%
    13:00 -1°C° 0.1 mm 6 mps 725 mmHg 90%
    14:00 +1°C° 0.1 mm 6 mps 725 mmHg 90%
    15:00 -1°C° 0.1 mm 6 mps 725 mmHg 90%
    16:00 -1°C° 0.1 mm 6 mps 725 mmHg 90%
    17:00 0°C° 0.1 mm 5 mps 725 mmHg 90%
    18:00 -1°C° 0 mm 4 mps 725 mmHg 91%
    19:00 -2°C° 0 mm 4 mps 726 mmHg 92%
    20:00 -1°C° 0 mm 3 mps 726 mmHg 94%
    21:00 -1°C° 0.4 mm 3 mps 726 mmHg 95%
    22:00 -1°C° 0.4 mm 3 mps 726 mmHg 96%
    23:00 -1°C° 0.4 mm 2 mps 725 mmHg 97%

    Tomorrow, 25 January, Saturday

    Time Temperature Precipitation Wind Pressure Humidity
    00:00 -1°C° 0.4 mm 3 mps 725 mmHg 96%
    01:00 -1°C° 0.4 mm 4 mps 725 mmHg 95%
    02:00 -1°C° 0.4 mm 4 mps 725 mmHg 93%
    03:00 -1°C° 0.1 mm 4 mps 725 mmHg 92%
    04:00 -2°C° 0.1 mm 4 mps 724 mmHg 90%
    05:00 -2°C° 0.1 mm 4 mps 724 mmHg 89%
    06:00 -2°C° 0 mm 5 mps 724 mmHg 87%
    07:00 -2°C° 0 mm 5 mps 723 mmHg 86%
    08:00 -3°C° 0 mm 6 mps 723 mmHg 84%
    09:00 -3°C° 0.3 mm 6 mps 723 mmHg 83%
    10:00 -3°C° 0.3 mm 6 mps 723 mmHg 83%
    11:00 -3°C° 0.3 mm 7 mps 723 mmHg 82%
    12:00 -3°C° 0.4 mm 7 mps 723 mmHg 77%
    13:00 -3°C° 0.4 mm 7 mps 723 mmHg 71%
    14:00 -3°C° 0.4 mm 7 mps 723 mmHg 66%
    15:00 -4°C° 0.1 mm 7 mps 724 mmHg 70%
    16:00 -5°C° 0.1 mm 6 mps 724 mmHg 74%
    17:00 -5°C° 0.1 mm 6 mps 725 mmHg 77%
    18:00 -5°C° 0.1 mm 6 mps 725 mmHg 78%
    19:00 -5°C° 0.1 mm 6 mps 726 mmHg 79%
    20:00 -5°C° 0.1 mm 6 mps 726 mmHg 79%
    21:00 -5°C° 0.1 mm 6 mps 727 mmHg 78%
    22:00 -5°C° 0.1 mm 6 mps 728 mmHg 78%
    23:00 -5°C° 0.1 mm 6 mps 729 mmHg 77%

    Day after tomorrow, 26 January, Sunday

    Time Temperature Precipitation Wind Pressure Humidity
    00:00 -5°C° 0 mm 6 mps 729 mmHg 77%
    01:00 -6°C° 0 mm 6 mps 730 mmHg 77%
    02:00 -6°C° 0 mm 5 mps 731 mmHg 77%
    03:00 -6°C° 0 mm 5 mps 731 mmHg 79%
    04:00 -5°C° 0 mm 4 mps 732 mmHg 81%
    05:00 -7°C° 0 mm 4 mps 733 mmHg 83%
    06:00 -6°C° 0 mm 3 mps 733 mmHg 84%
    07:00 -6°C° 0 mm 3 mps 733 mmHg 85%
    08:00 -6°C° 0 mm 3 mps 734 mmHg 86%
    09:00 -5°C° 0 mm 3 mps 734 mmHg 83%
    10:00 -4°C° 0 mm 3 mps 734 mmHg 79%
    11:00 -4°C° 0 mm 3 mps 734 mmHg 76%
    12:00 -4°C° 0.1 mm 4 mps 734 mmHg 81%
    13:00 -3°C° 0.1 mm 4 mps 733 mmHg 85%
    14:00 -3°C° 0.1 mm 4 mps 733 mmHg 90%
    15:00 -3°C° 0.3 mm 4 mps 733 mmHg 92%
    16:00 -2°C° 0.3 mm 4 mps 732 mmHg 94%
    17:00 -2°C° 0.3 mm 4 mps 732 mmHg 97%
    18:00 -1°C° 0.3 mm 4 mps 732 mmHg 96%
    19:00 0°C° 0.3 mm 5 mps 732 mmHg 96%
    20:00 0°C° 0.3 mm 5 mps 732 mmHg 96%
    21:00 +1°C° 0.1 mm 5 mps 732 mmHg 95%
    22:00 +1°C° 0.1 mm 5 mps 732 mmHg 95%
    23:00 +1°C° 0.1 mm 5 mps 732 mmHg 95%

    27 January, Monday

    Time Temperature Precipitation Wind Pressure Humidity
    00:00 +1°C° 0.5 mm 5 mps 732 mmHg 95%
    01:00 +1°C° 0.5 mm 4 mps 732 mmHg 96%
    02:00 +1°C° 0.5 mm 4 mps 732 mmHg 96%
    03:00 0°C° 0.7 mm 4 mps 732 mmHg 96%
    04:00 0°C° 0.7 mm 4 mps 733 mmHg 96%
    05:00 0°C° 0.7 mm 4 mps 733 mmHg 97%
    06:00 0°C° 0.4 mm 4 mps 733 mmHg 97%
    07:00 0°C° 0.4 mm 4 mps 733 mmHg 97%
    08:00 0°C° 0.4 mm 4 mps 733 mmHg 97%
    09:00 0°C° 0.2 mm 4 mps 733 mmHg 97%
    10:00 0°C° 0.2 mm 4 mps 733 mmHg 97%
    11:00 +1°C° 0.2 mm 3 mps 733 mmHg 97%
    12:00 +1°C° 0.1 mm 3 mps 733 mmHg 97%
    13:00 +1°C° 0.1 mm 3 mps 733 mmHg 97%
    14:00 +1°C° 0.1 mm 3 mps 733 mmHg 97%
    15:00 +1°C° 0.2 mm 3 mps 733 mmHg 97%
    16:00 +1°C° 0.2 mm 3 mps 733 mmHg 97%
    17:00 +2°C° 0.2 mm 2 mps 733 mmHg 97%
    18:00 +2°C° 0.2 mm 2 mps 733 mmHg 98%
    19:00 +2°C° 0.2 mm 2 mps 733 mmHg 98%
    20:00 +1°C° 0.2 mm 2 mps 733 mmHg 98%
    21:00 +1°C° 0.2 mm 2 mps 733 mmHg 98%
    22:00 +1°C° 0.2 mm 2 mps 733 mmHg 98%
    23:00 +1°C° 0.2 mm 2 mps 733 mmHg 97%

    28 January, Tuesday

    Time Temperature Precipitation Wind Pressure Humidity
    00:00 +1°C° 0.1 mm 2 mps 733 mmHg 98%
    01:00 +1°C° 0.1 mm 2 mps 733 mmHg 98%
    02:00 +1°C° 0.1 mm 2 mps 732 mmHg 98%
    03:00 +1°C° 0.1 mm 2 mps 732 mmHg 98%
    04:00 +1°C° 0.1 mm 2 mps 732 mmHg 98%
    05:00 +1°C° 0.1 mm 2 mps 732 mmHg 98%
    06:00 +1°C° 0 mm 2 mps 732 mmHg 98%
    07:00 -1°C° 0 mm 2 mps 732 mmHg 98%
    08:00 -1°C° 0 mm 2 mps 732 mmHg 97%
    09:00 -1°C° 0 mm 2 mps 732 mmHg 97%
    10:00 +1°C° 0 mm 2 mps 732 mmHg 96%
    11:00 +1°C° 0 mm 2 mps 732 mmHg 96%
    12:00 +1°C° 0 mm 2 mps 731 mmHg 96%
    13:00 0°C° 0 mm 3 mps 731 mmHg 96%
    14:00 -1°C° 0 mm 3 mps 731 mmHg 95%
    15:00 -1°C° 0 mm 3 mps 730 mmHg 93%
    16:00 -1°C° 0 mm 3 mps 730 mmHg 91%
    17:00 -1°C° 0 mm 3 mps 730 mmHg 89%
    18:00 -2°C° 0 mm 4 mps 730 mmHg 89%
    19:00 -2°C° 0 mm 4 mps 729 mmHg 89%
    20:00 -2°C° 0 mm 4 mps 729 mmHg 89%
    21:00 -2°C° 0 mm 4 mps 729 mmHg 90%
    22:00 -2°C° 0 mm 4 mps 729 mmHg 92%
    23:00 -1°C° 0 mm 5 mps 728 mmHg 93%

    29 January, Wednesday

    Time Temperature Precipitation Wind Pressure Humidity
    00:00 -1°C° 0 mm 5 mps 728 mmHg 92%
    01:00 -1°C° 0 mm 5 mps 727 mmHg 91%
    02:00 -1°C° 0 mm 5 mps 727 mmHg 91%
    03:00 -1°C° 0 mm 5 mps 726 mmHg 91%
    04:00 -1°C° 0 mm 5 mps 726 mmHg 92%
    05:00 -1°C° 0 mm 5 mps 725 mmHg 92%
    06:00 -1°C° 0 mm 5 mps 725 mmHg 92%
    07:00 -1°C° 0 mm 5 mps 724 mmHg 92%
    08:00 -1°C° 0 mm 5 mps 724 mmHg 93%
    09:00 -1°C° 0.4 mm 5 mps 724 mmHg 93%
    10:00 -1°C° 0.4 mm 5 mps 724 mmHg 94%
    11:00 -1°C° 0.4 mm 5 mps 724 mmHg 94%
    12:00 0°C° 0.1 mm 4 mps 724 mmHg 90%
    13:00 0°C° 0.1 mm 4 mps 724 mmHg 87%
    14:00 +1°C° 0.1 mm 3 mps 724 mmHg 83%
    15:00 0°C° 0 mm 3 mps 724 mmHg 85%
    16:00 0°C° 0 mm 3 mps 724 mmHg 86%
    17:00 -1°C° 0 mm 3 mps 725 mmHg 88%
    18:00 -1°C° 0 mm 3 mps 724 mmHg 87%
    19:00 -2°C° 0 mm 4 mps 724 mmHg 86%
    20:00 -2°C° 0 mm 4 mps 724 mmHg 85%
    21:00 -2°C° 0.2 mm 4 mps 723 mmHg 87%
    22:00 -2°C° 0.2 mm 4 mps 723 mmHg 88%
    23:00 -2°C° 0.2 mm 4 mps 723 mmHg 90%
    Show more